Satellite: NOAA-11
Catalog number: 19531
Epoch time: 07193.30733320
Element set: 724
Inclination: 098.8118 deg
RA of node: 282.1595 deg
Eccentricity: 0.0011036
Arg of perigee: 323.0403 deg
Mean anomaly: 037.0057 deg
Mean motion: 14.14847056 rev/day
Decay rate: 4.4e-07 rev/day^2
Epoch rev: 96970
Checksum: 280
Satellite: NOAA-12
Catalog number: 21263
Epoch time: 07193.36042961
Element set: 220
Inclination: 098.7523 deg
RA of node: 190.5590 deg
Eccentricity: 0.0013441
Arg of perigee: 038.4735 deg
Mean anomaly: 321.7393 deg
Mean motion: 14.25544926 rev/day
Decay rate: 1.61e-06 rev/day^2
Epoch rev: 83983
Checksum: 297
Satellite: MET-3/5
Catalog number: 21655
Epoch time: 07192.93850391
Element set: 0366
Inclination: 082.5524 deg
RA of node: 345.4518 deg
Eccentricity: 0.0013512
Arg of perigee: 140.8592 deg
Mean anomaly: 219.3510 deg
Mean motion: 13.17011544 rev/day
Decay rate: 5.1e-07 rev/day^2
Epoch rev: 76466
Checksum: 290
Satellite: MET-2/21
Catalog number: 22782
Epoch time: 07192.59458013
Element set: 0875
Inclination: 082.5474 deg
RA of node: 022.5496 deg
Eccentricity: 0.0022713
Arg of perigee: 163.7606 deg
Mean anomaly: 196.4274 deg
Mean motion: 13.83618831 rev/day
Decay rate: 1.0e-08 rev/day^2
Epoch rev: 69989
Checksum: 331
Satellite: OKEAN-4
Catalog number: 23317
Epoch time: 07192.81577970
Element set: 313
Inclination: 082.5389 deg
RA of node: 273.5565 deg
Eccentricity: 0.0022560
Arg of perigee: 167.0713 deg
Mean anomaly: 193.1072 deg
Mean motion: 14.82517739 rev/day
Decay rate: 2.38e-06 rev/day^2
Epoch rev: 68770
Checksum: 319
Satellite: NOAA-14
Catalog number: 23455
Epoch time: 07193.27522319
Element set: 704
Inclination: 098.9884 deg
RA of node: 259.5929 deg
Eccentricity: 0.0009828
Arg of perigee: 034.6745 deg
Mean anomaly: 325.5079 deg
Mean motion: 14.13721358 rev/day
Decay rate: -2.48e-06 rev/day^2
Epoch rev: 64618
Checksum: 345
Satellite: SICH-1
Catalog number: 23657
Epoch time: 07192.80587687
Element set: 0114
Inclination: 082.5270 deg
RA of node: 054.5129 deg
Eccentricity: 0.0024325
Arg of perigee: 158.2312 deg
Mean anomaly: 201.9938 deg
Mean motion: 14.81499347 rev/day
Decay rate: 2.31e-06 rev/day^2
Epoch rev: 63967
Checksum: 315
Satellite: NOAA-15
Catalog number: 25338
Epoch time: 07193.45544597
Element set: 63
Inclination: 098.5303 deg
RA of node: 189.4253 deg
Eccentricity: 0.0009904
Arg of perigee: 320.8428 deg
Mean anomaly: 039.2044 deg
Mean motion: 14.24654045 rev/day
Decay rate: 9.9e-07 rev/day^2
Epoch rev: 47628
Checksum: 321
Satellite: RESURS
Catalog number: 25394
Epoch time: 07192.72844384
Element set: 0688
Inclination: 098.4389 deg
RA of node: 246.2861 deg
Eccentricity: 0.0002265
Arg of perigee: 096.9674 deg
Mean anomaly: 263.1763 deg
Mean motion: 14.24140333 rev/day
Decay rate: -1.0e-08 rev/day^2
Epoch rev: 46784
Checksum: 325
Satellite: FENGYUN1
Catalog number: 25730
Epoch time: 07193.51418084
Element set: 168
Inclination: 098.6864 deg
RA of node: 176.4197 deg
Eccentricity: 0.0021792
Arg of perigee: 057.7973 deg
Mean anomaly: 302.5319 deg
Mean motion: 14.07553568 rev/day
Decay rate: 7.25e-06 rev/day^2
Epoch rev: 42103
Checksum: 319
Satellite: OKEAN-0
Catalog number: 25860
Epoch time: 07193.56193215
Element set: 101
Inclination: 097.7303 deg
RA of node: 194.6238 deg
Eccentricity: 0.0000951
Arg of perigee: 034.7873 deg
Mean anomaly: 325.3398 deg
Mean motion: 14.73462707 rev/day
Decay rate: 3.6e-07 rev/day^2
Epoch rev: 42923
Checksum: 298
Satellite: NOAA-16
Catalog number: 26536
Epoch time: 07193.47923440
Element set: 478
Inclination: 099.1170 deg
RA of node: 170.8614 deg
Eccentricity: 0.0011499
Arg of perigee: 101.7111 deg
Mean anomaly: 258.5328 deg
Mean motion: 14.12440201 rev/day
Decay rate: 2.18e-06 rev/day^2
Epoch rev: 35067
Checksum: 285
Satellite: NOAA-17
Catalog number: 27453
Epoch time: 07193.25377904
Element set: 490
Inclination: 098.5787 deg
RA of node: 261.9538 deg
Eccentricity: 0.0012117
Arg of perigee: 026.3457 deg
Mean anomaly: 333.8346 deg
Mean motion: 14.23892501 rev/day
Decay rate: -3.3e-07 rev/day^2
Epoch rev: 26228
Checksum: 319
Satellite: NOAA-18
Catalog number: 28654
Epoch time: 07193.28360108
Element set: 27
Inclination: 098.8281 deg
RA of node: 134.1464 deg
Eccentricity: 0.0013875
Arg of perigee: 193.7403 deg
Mean anomaly: 166.3404 deg
Mean motion: 14.11076771 rev/day
Decay rate: -1.74e-06 rev/day^2
Epoch rev: 11039
Checksum: 297
/EX
SB KEPS @ AMSAT $ORB07193.M
Orbital Elements 07193.MISC
HR AMSAT ORBITAL ELEMENTS FOR MANNED AND MISCELLANEOUS SATELLITES
FROM WA5QGD FORT WORTH,TX July 12, 2007
Send SUBSCRIBE KEPS/UNSUBSCRIBE KEPS to majordomo(a)amsat.org only
BID: ORB07193.M
TO ALL RADIO AMATEURS BT
Satellite: HUBBLE
Catalog number: 20580
Epoch time: 07192.88825760
Element set: 914
Inclination: 028.4680 deg
RA of node: 029.0503 deg
Eccentricity: 0.0003305
Arg of perigee: 357.8300 deg
Mean anomaly: 002.2278 deg
Mean motion: 15.00258938 rev/day
Decay rate: 3.28e-06 rev/day^2
Epoch rev: 74367
Checksum: 287
Satellite: UARS
Catalog number: 21701
Epoch time: 07192.87850132
Element set: 0123
Inclination: 056.9749 deg
RA of node: 206.7629 deg
Eccentricity: 0.0086787
Arg of perigee: 237.7519 deg
Mean anomaly: 121.5122 deg
Mean motion: 15.48460394 rev/day
Decay rate: 2.091e-05 rev/day^2
Epoch rev: 86957
Checksum: 325
Satellite: PO-34
Catalog number: 25520
Epoch time: 07192.45095652
Element set: 0781
Inclination: 028.4608 deg
RA of node: 306.3484 deg
Eccentricity: 0.0005920
Arg of perigee: 161.3245 deg
Mean anomaly: 198.7566 deg
Mean motion: 15.17020010 rev/day
Decay rate: 4.45e-06 rev/day^2
Epoch rev: 48121
Checksum: 284
Satellite: ISS
Catalog number: 25544
Epoch time: 07193.90119973
Element set: 570
Inclination: 051.6341 deg
RA of node: 330.9639 deg
Eccentricity: 0.0008786
Arg of perigee: 060.6032 deg
Mean anomaly: 079.8089 deg
Mean motion: 15.78942823 rev/day
Decay rate: 1.7574e-04 rev/day^2
Epoch rev: 49483
Checksum: 339
Satellite: OO-38
Catalog number: 26063
Epoch time: 07193.53497566
Element set: 957
Inclination: 100.2278 deg
RA of node: 200.8390 deg
Eccentricity: 0.0037458
Arg of perigee: 088.3553 deg
Mean anomaly: 272.1927 deg
Mean motion: 14.35810457 rev/day
Decay rate: 3.0e-08 rev/day^2
Epoch rev: 39068
Checksum: 324
Satellite: UWE-1
Catalog number: 28892
Epoch time: 07192.34356650
Element set: 0794
Inclination: 098.1301 deg
RA of node: 088.5073 deg
Eccentricity: 0.0018248
Arg of perigee: 039.9443 deg
Mean anomaly: 320.3079 deg
Mean motion: 14.59520471 rev/day
Decay rate: 4.4e-07 rev/day^2
Epoch rev: 09073
Checksum: 309
Satellite: CO-58
Catalog number: 28895
Epoch time: 07192.73279349
Element set: 772
Inclination: 098.1309 deg
RA of node: 089.1092 deg
Eccentricity: 0.0018780
Arg of perigee: 038.2982 deg
Mean anomaly: 321.9548 deg
Mean motion: 14.59566751 rev/day
Decay rate: 4.2e-07 rev/day^2
Epoch rev: 9067
Checksum: 359
Satellite: NCUBE2
Catalog number: 28897
Epoch time: 07193.28469144
Element set: 300
Inclination: 098.1291 deg
RA of node: 089.6039 deg
Eccentricity: 0.0018192
Arg of perigee: 038.0799 deg
Mean anomaly: 322.1695 deg
Mean motion: 14.59730684 rev/day
Decay rate: 1.25e-06 rev/day^2
Epoch rev: 8303
Checksum: 325
Satellite: NMARS
Catalog number: 29662
Epoch time: 07126.39603970
Element set: 263
Inclination: 051.6121 deg
RA of node: 302.3682 deg
Eccentricity: 0.0004459
Arg of perigee: 252.1654 deg
Mean anomaly: 110.7411 deg
Mean motion: 16.47981436 rev/day
Decay rate: 7.031946e-02 rev/day^2
Epoch rev: 2165
Checksum: 289
Satellite: FCAL
Catalog number: 29667
Epoch time: 07192.79811781
Element set: 0211
Inclination: 051.6339 deg
RA of node: 325.1412 deg
Eccentricity: 0.0014535
Arg of perigee: 080.9523 deg
Mean anomaly: 279.3142 deg
Mean motion: 15.89027320 rev/day
Decay rate: 1.2398e-04 rev/day^2
Epoch rev: 03191
Checksum: 294
Satellite: FALCON
Catalog number: 30776
Epoch time: 07192.96937603
Element set: 0094
Inclination: 035.4339 deg
RA of node: 062.4267 deg
Eccentricity: 0.0002062
Arg of perigee: 325.1738 deg
Mean anomaly: 034.8843 deg
Mean motion: 15.02733201 rev/day
Decay rate: 1.79e-06 rev/day^2
Epoch rev: 01878
Checksum: 295
Satellite: MAST
Catalog number: 31126
Epoch time: 07192.76750959
Element set: 78
Inclination: 098.0808 deg
RA of node: 265.0248 deg
Eccentricity: 0.0093957
Arg of perigee: 309.9482 deg
Mean anomaly: 049.3464 deg
Mean motion: 14.53351588 rev/day
Decay rate: 3.92e-06 rev/day^2
Epoch rev: 1242
Checksum: 328
Satellite: CAPE1
Catalog number: 31130
Epoch time: 07192.16581140
Element set: 0075
Inclination: 098.0815 deg
RA of node: 264.2451 deg
Eccentricity: 0.0102218
Arg of perigee: 312.3574 deg
Mean anomaly: 046.9000 deg
Mean motion: 14.51865552 rev/day
Decay rate: 7.1e-07 rev/day^2
Epoch rev: 01209
Checksum: 251
/EX